Location: Unspecified
(43.4354°N, 0.0000°E)
Time: 05:56:20
(UTC+00:00)

Vanguard 2 Rocket - Pass Details

Date: 25 June 2019
Orbit: 554 x 3326 km, 32.9° (Epoch: 18 July)

Event Time Altitude Azimuth Distance (km) Brightness Sun altitude
Rises 19:44:17 0° 213° (SSW) 3,305 9.8 -0.7°
Reaches altitude 10° 19:46:51 10° 197° (SSW) 2,636 9.1 -1.1°
Maximum altitude 19:51:49 23° 146° (SE) 2,333 8.5 -1.9°
Drops below altitude 10° 19:59:05 10° 99° (E) 4,028 9.7 -2.9°
Sets 20:04:11 0° 88° (E) 5,574 10.4 -3.7°
